Vertical_Velocity
-5 -3 -5 -3 -5 -4 3 4 12 3 -6 -1 4 2 1 -3 -2 1 1 -1 0 -1
4 -5 -1 -1 -5 -5 -2 2 -2 8 2 0 1 5 1 -2 3 2 -0 0 -1 -2
-0 3 -3 -7 -1 -8 1 3 -18 17 -0 7 -2 5 1 3 5 3 2 5 1 -1
-4 -2 1 -3 -2 2 5 4 -8 -2 -7 2 -3 1 3 2 5 1 1 1 3 2
-3 -4 -3 -1 1 1 6 8 -1 -0 10 -8 4 5 5 6 6 4 1 3 -0 1
-1 -5 -2 -1 -2 -0 -0 13 16 -7 8 11 -1 4 2 12 6 1 -3 3 4 3
-2 -2 -5 -3 -1 -2 -5 2 1 9 25 23 62 14 7 1 -1 2 -2 0 3 -2
-5 -5 -3 -3 -2 -1 -0 -9 2 20 -1 13 10 7 -3 -3 5 0 -4 -1 0 -1
-7 -2 1 2 -1 -5 -6 -3 7 10 3 6 4 6 -1 5 -1 -10 -8 -2 -4 -2
-2 -0 -1 -0 -1 -5 -4 2 1 8 -2 -5 19 8 -5 5 -5 -9 -3 2 4 -3
-2 -2 -4 -0 -3 -2 -3 4 -1 2 -13 -2 4 2 14 5 -8 -8 -3 3 -1 -4
-2 -1 -0 1 -2 0 1 1 13 15 1 -6 -9 0 -9 -16 -11 -5 -1 2 -2 -3
-1 2 1 -2 -2 3 1 10 7 6 6 6 -2 -9 -9 -5 -5 -2 2 -5 -0 -4
1 0 -2 0 -1 4 7 4 7 13 0 -9 -15 -6 -6 -5 -5 0 -1 -0 -2 1
Height
5595 5596 5599 5603 5609 5613 5617 5622 5627 5628 5632 5638 5642 5646 5650 5656 5662 5667 5672 5676 5682 5685
5560 5558 5561 5564 5569 5575 5580 5590 5595 5599 5606 5613 5617 5622 5627 5634 5641 5646 5652 5657 5662 5668
5520 5524 5525 5528 5533 5538 5547 5554 5561 5569 5575 5585 5592 5599 5604 5612 5619 5624 5630 5637 5643 5649
5483 5483 5486 5491 5499 5509 5518 5525 5533 5544 5550 5558 5567 5575 5582 5590 5597 5604 5610 5617 5624 5630
5453 5452 5453 5456 5463 5472 5486 5495 5507 5521 5531 5535 5544 5553 5562 5571 5577 5585 5591 5598 5605 5612
5432 5430 5431 5432 5433 5439 5449 5466 5479 5495 5506 5513 5522 5532 5545 5554 5560 5567 5575 5581 5588 5594
5415 5412 5412 5413 5414 5416 5420 5433 5454 5469 5483 5492 5501 5513 5526 5536 5545 5551 5558 5566 5572 5577
5395 5392 5391 5393 5395 5397 5400 5411 5423 5444 5456 5473 5488 5500 5510 5520 5529 5537 5543 5551 5555 5561
5375 5373 5370 5372 5374 5377 5381 5389 5399 5417 5436 5455 5473 5486 5494 5504 5515 5522 5530 5536 5541 5547
5359 5358 5357 5356 5357 5358 5361 5370 5383 5398 5416 5445 5459 5470 5481 5491 5500 5509 5515 5521 5526 5532
5342 5342 5340 5340 5341 5343 5347 5356 5371 5388 5409 5430 5447 5459 5470 5479 5489 5495 5502 5508 5513 5519
5327 5327 5325 5326 5329 5333 5340 5351 5367 5383 5402 5421 5440 5449 5459 5470 5477 5483 5489 5495 5500 5505
5315 5315 5317 5319 5322 5328 5338 5352 5366 5379 5397 5417 5429 5445 5458 5462 5466 5472 5477 5483 5487 5491
5311 5311 5312 5317 5323 5330 5341 5354 5368 5380 5396 5418 5433 5439 5445 5450 5455 5461 5466 5470 5474 5479